Submittal Forms
Current Contests
Recent Contests

Club Activity Tracker - Metro DX Club (from list of calls managed by W9ILY)

Recent postings for the selected club or group are listed below. Other than the call used, all calls listed are only those associated with the club or group. Click on a call to see the details of the posting.
Status Key: new=new posting, update=update prior posting, move=change club/group, delete=delete prior posting.

Sort by   for past

TimestampCallContestClassPowerScoreStatus
2020-05-28 17:12:41NV9LYL DayYLHP125new5607
2020-05-28 04:06:22K9ZOCWopsTSingle OpHP25,920new5615
2020-05-28 04:02:05WA9LEYCWopsTSingle OpQRP1,482new5615
2020-05-28 04:01:42W9ILYCWopsTSingle OpLP9,100new5615
2020-05-27 20:03:40W9ILYYL DayOMLP1new5607
2020-05-27 20:03:07K9ZOCWopsTSingle OpHP27,475new5614
2020-05-27 20:02:29WA9LEYCWopsTSingle OpQRP1,806new5614
2020-05-27 20:00:47WT2PCWopsTSingle OpHP2,450new5614
2020-05-27 19:55:54W9ILYCWopsTSingle OpLP7,826new5614
2020-05-27 14:24:31W9ILYCWopsTSingle OpLP4,160new5613
 
2020-05-27 14:22:47K9ZOCWopsTSingle OpHP32,761new5613
2020-05-27 14:05:45WT2PCWopsTSingle OpHP1,225new5613
2020-05-27 14:02:53WA9LEYCWopsTSingle OpQRP1,517new5613
2020-05-27 12:58:20W9ILYRYOps WeekSingle OpLP2new5610
2020-05-24 15:22:54W9ILYEU PSKSOSB/20HP598new5600
2020-05-23 21:21:59W9ILYRYOps WkEndSOABHP8,703new5601
2020-05-22 00:52:14N9TKHamventionSingle OpHP172new5569
2020-05-21 17:50:28W9ILYRYOps WeekSingle OpHP1new5589
2020-05-21 04:13:00K9ZOCWopsTSingle OpHP19,035new5593
2020-05-21 04:07:19K9ZOCWopsTSingle OpHP22,201new5594
 
2020-05-21 04:04:51K9NRCWopsTSingle OpLP15,982new5594
2020-05-21 04:04:03WT2PCWopsTSingle OpHP5,698new5594
2020-05-21 04:01:51WA9LEYCWopsTSingle OpLP2,750new5594
2020-05-21 04:01:03W9ILYCWopsTSingle OpHP10,640new5594
2020-05-20 21:40:09WA9LEYCWopsTSingle OpLP2,600new5593
2020-05-20 20:01:14W9ILYCWopsTSingle OpHP2,450new5593
2020-05-20 15:31:24WA9LEYCWopsTSingle OpLP1,056new5592
2020-05-20 14:19:02K9ZOCWopsTSingle OpHP30,276new5592
2020-05-20 14:01:10W9ILYCWopsTSingle OpLP1,260new5592
2020-05-19 03:44:14NV9LWWSACSOAB-YLHP15,192update5587
 
2020-05-17 17:34:38W9ILYHamventionSingle OpHP227new5569
2020-05-17 14:23:07WA9LEYHamventionSingle OpLP134new5569
2020-05-17 13:36:14N2BJHamventionSingle OpHP550new5569
2020-05-17 02:10:14K9PMVHamventionSingle OpLP103new5569
2020-05-17 00:49:01WT2PHamventionSingle OpHP142new5569
2020-05-17 00:25:00K9ZOHamventionSingle OpHP1,189new5569
2020-05-17 00:22:53WB9ZHamventionSingle OpHP981new5569
2020-05-17 00:16:18NV9LHamventionSingle OpHP267new5569
2020-05-17 00:13:06K9NRHamventionSingle OpLP339new5569
2020-05-16 23:28:24W9KXTHamventionSingle OpLP7new5569
 
2020-05-15 20:30:09W9ILYRYOps WeekSingle OpHP5new5578
2020-05-14 04:10:36K9ZOCWopsTSingle OpHP23,409new5576
2020-05-14 04:03:27WA9LEYCWopsTSingle OpLP3,009new5576
2020-05-14 04:03:21WT2PCWopsTSingle OpHP5,110new5576
2020-05-14 03:47:52W9ILYCWopsTSingle OpLP2,550new5576
2020-05-13 21:14:10K9ZOCWopsTSingle OpHP25,600new5575
2020-05-13 20:21:07WT2PCWopsTSingle OpHP1,024new5575
2020-05-13 20:02:17W9ILYCWopsTSingle OpLP5,037new5575
2020-05-13 20:01:22WA9LEYCWopsTSingle OpLP2,970new5575
2020-05-13 14:17:44K9ZOCWopsTSingle OpHP33,489new5574
 
2020-05-13 14:07:21WA9LEYCWopsTSingle OpLP1,845new5574
2020-05-13 14:03:56W9ILYCWopsTSingle OpLP625new5574
2020-05-12 17:49:04W9ILYRYOps WeekSingle OpHP5new5571
2020-05-10 19:37:39W9ILYVolta RTTYSOSB/20HP16,787,520new5563
2020-05-10 16:15:46WA9LEYArQPSOMixedLP3,816update5565
2020-05-10 12:02:13WT2PVolta RTTYSOABHP3,442,824new5563
2020-05-10 03:03:52WT2P50SprngSprntSingle OpHP20new5567
2020-05-09 13:16:18W9ILYRYOps WeekSingle OpHP1new5560
2020-05-07 22:47:11WT2PCWopsTSingle OpHP7,917new5559
2020-05-07 17:47:25K9NRNewEngQPSingle OpLP5,056new5547
 
2020-05-07 17:35:50K9NR7QPSO(A)CWLP855new5544
2020-05-07 16:30:57K9NRInQPSingle OpLP836new5545
2020-05-07 04:05:02K9ZOCWopsTSingle OpHP23,716new5559
2020-05-07 04:01:57W9ILYCWopsTSingle OpHP9,595new5559
2020-05-07 04:01:48WA9LEYCWopsTSingle OpLP3,132new5559
2020-05-06 21:26:45K9ZOCWopsTSingle OpHP21,025new5557
2020-05-06 20:15:26K9ZOCWopsTSingle OpHP26,896new5558
2020-05-06 20:02:18WA9LEYCWopsTSingle OpLP3,192new5558
2020-05-06 20:01:33W9ILYCWopsTSingle OpLP1,681new5558
2020-05-06 20:01:30K4IUCWopsTSingle OpLP4,968new5558
 
2020-05-06 17:48:47W9ILYRYOps WeekSingle OpHP3update5555
2020-05-06 14:35:09W9ILYCWopsTSingle OpHP1,600new5557
2020-05-06 14:06:05WA9LEYCWopsTSingle OpQRP1,224new5557
2020-05-04 20:45:40W9ILYNewEngQPSingle OpHP10,580new5547
2020-05-04 20:44:34W9ILYDeQPSingle OpHP480new5546
2020-05-04 20:43:36W9ILY7QPSO(A)MixedHP36,192new5544
2020-05-04 19:27:04W9ILYRYOps WkEndSOABHP9,371new5549
2020-05-04 19:16:15W9ILYARISO RTTYHP74,529new5543
2020-05-04 17:06:30K9PMVNewEngQPSingle OpLP4,686new5547
2020-05-04 17:00:15K9PMVARISO CWLP10new5543
 
2020-05-04 16:57:22K9PMV7QPSOMixedLP1,530new5544
2020-05-04 15:24:52NV9L7QPM/SHP66,528new5544
 (NV9L,@WB9Z)
2020-05-04 15:24:03WA9LEYNewEngQPSingle OpLP10,336new5547
2020-05-04 15:23:07WA9LEY7QPSO(A)CWLP14,628new5544
2020-05-04 15:20:39WA9LEYInQPSingle OpLP352new5545
2020-05-04 15:18:32WA9LEYDeQPSingle OpLP320new5546
2020-05-04 01:34:45NV9LNewEngQPM/SHP38,396new5547
 (NV9L,@WB9Z)
2020-05-04 01:31:29NV9LInQPM/SHP1,350new5545
 (NV9L,@WB9Z)
2020-05-04 01:29:27NV9LDeQPM/SHP2,600new5546
 (NV9L,@WB9Z)
2020-05-04 00:02:56WT2PNewEngQPSingle OpHP10,070new5547
 
2020-05-03 14:28:38WT2PInQPSingle OpHP2,739new5545
2020-05-03 14:25:39WT2P7QPSO(A)MixedHP12,432new5544
2020-05-03 05:23:11KM9MInQPSingle OpLP240new5545
2020-05-01 02:16:31W9ILYNCCC RY-SprintSingle OpLP198new5539
2020-04-30 17:36:15W9ILYRYOps WeekSingle OpHP4new5532
2020-04-30 04:11:24K9ZOCWopsTSingle OpHP22,983new5537
2020-04-30 04:02:04WA9LEYCWopsTSingle OpLP1,156new5537
2020-04-30 03:48:40W9ILYCWopsTSingle OpLP3,024new5537
2020-04-29 20:20:22W9ILYCWopsTSingle OpLP2,450new5536
2020-04-29 20:09:11K9ZOCWopsTSingle OpHP23,868new5536
 
2020-04-29 20:01:19WA9LEYCWopsTSingle OpLP1,681new5536
2020-04-29 15:33:59W9ILYCWopsTSingle OpLP1new5535
2020-04-29 14:49:31K9ZOCWopsTSingle OpHP25,921new5535
2020-04-29 14:19:07WA9LEYCWopsTSingle OpLP1,848new5535
2020-04-28 18:59:57W9ILYRYOps WeekSingle OpHP7new